Weather Roundup
Issued by NWS Chicago, IL

Home | Current Version | Previous Version | Graphics & Text | Print | Product List | Glossary On
Versions: 1 2 3 4 5 6 7 8 9 10 11 12 13 14 15 16 17 18 19 20 21 22 23 24 25 26 27 28 29 30 31 32 33 34 35 36 37 38 39 40 41 42 43 44 45 46 47 48 49 50
000
NZUS59 KLOT 030708
HRRLOT

CHICAGO AREA WEATHER ROUNDUP
NATIONAL WEATHER SERVICE CHICAGO/ROMEOVILLE IL
200 AM CDT MON AUG 03 2015

NOTE: "FAIR" INDICATES FEW OR NO CLOUDS BELOW 12,000 FEET WITH NO
SIGNIFICANT WEATHER AND/OR OBSTRUCTIONS TO VISIBILITY.

* THESE STATIONS ARE NOT UNDER NWS QUALITY CONTROL. THEY ALSO MAY NOT
  REPORT WEATHER SUCH AS PRECIPITATION OR FOG.

ILZ005-006-012>014-019>023-030800-
NORTHEAST ILLINOIS

CITY           SKY/WX    TMP DP  RH WIND       PRES   REMARKS
OHARE          MOCLDY    68  66  93 W5        29.75S
MIDWAY         MOCLDY    69  65  86 W3        29.74F
AURORA         PTCLDY    68  64  87 W3        29.77S
LANSING*       CLOUDY    64  64  97 W3        29.76R
JOLIET*        CLOUDY    70  66  87 CALM      29.76S
WAUKEGAN       MOCLDY    67  65  93 W5        29.74S
DUPAGE AIRPORT MOCLDY    67  64  90 CALM      29.76S
WHEELING       NOT AVBL
KANKAKEE*      MOCLDY    73  65  75 CALM      29.76F
MORRIS*        CLOUDY    70  65  85 CALM      29.76R
LEWIS AIRPORT* CLOUDY    67  65  96 N5        29.77R
NORTHERLY IS     N/A     69  64  84 W3          N/A
$$

WIZ051-052-058>065-066-070>072-030800-
SOUTHEAST WISCONSIN

CITY           SKY/WX    TMP DP  RH WIND       PRES   REMARKS
MILWAUKEE      PTCLDY    68  59  73 W3        29.74S
KENOSHA*       PTCLDY    64  61  90 W6        29.75R
RACINE*        PTCLDY    66  62  87 W6        29.76R
BURLINGTON     PTCLDY    61  59  94 CALM      29.76S
WAUKESHA       MOCLDY    63  59  88 SW5       29.77R
WEST BEND      PTCLDY    61  59  94 CALM      29.76R
$$

INZ001>003-010>013-019-020-030800-
NORTHWEST INDIANA

CITY           SKY/WX    TMP DP  RH WIND       PRES   REMARKS
GARY*          CLOUDY    67  66  97 W7        29.76R
MICHIGAN CITY* NOT AVBL
RENSSELAER*    NOT AVBL
VALPARAISO     CLOUDY    66  64  93 SW9       29.74F
$$

LMZ740>746-030800-
SOUTHERN LAKE MICHIGAN

STATION/POSITION TIME  SKY/WX   TEMP WIND        PRES    VSBY
                                AIR  DIR/SP/G
                 (UTC)          (F)  (DEG/KT/KT) (MB)    (MI)
HARRISON CRIB    0600            68  280/  7/  8   N/A
BURNHAM HARBOR   0700            70  260/  5/  7   N/A
CALUMET HARBOR   0600            67  240/  4/  6   N/A
BURNS HARBOR     0600            68  250/  9/ 10 1007.8R
MICHIGAN CITY    0600            67  220/ 16/ 19   N/A
$$

ABBREVIATIONS USED IN REMARKS
   TC - TEMPERATURE IN CELSIUS
  WCI - WIND CHILL INDEX
   HX - HEAT INDEX
  VSB - VISIBILITY
$$



USA.gov is the U.S. government's official web portal to all federal, state and local government web resources and services.